Springfield, CO

3:18 AM MDT on July 25, 2017 (GMT -0600)
Springfield

Weather History for KSPD - August, 2013

Change the Weather History Date:

Thursday, August 22, 2013

  Actual Average Record
Temperature  
Mean Temperature 79 °F -  
Max Temperature 94 °F 87 °F 98 °F (2010)
Min Temperature 63 °F 60 °F 57 °F (2004)
Degree Days  
Heating Degree Days 0 0  
Month to date heating degree days 1 0  
Since 1 June heating degree days 20 23  
Since 1 July heating degree days 1 2  
Cooling Degree Days 14 9  
Month to date cooling degree days 202 221  
Year to date cooling degree days 1029 832  
Since 1 June cooling degree days 912 778  
Growing Degree Days 28 (Base 50)    
Moisture  
Dew Point 56 °F    
Average Humidity 47    
Maximum Humidity 63    
Minimum Humidity 30    
Precipitation  
Precipitation 0.00 in 0.10 in 0.55 in (2005)
Month to date precipitation 2.29  
Year to date precipitation 9.74  
Sea Level Pressure  
Sea Level Pressure 29.90 in    
Wind  
Wind Speed 7 mph (West)    
Max Wind Speed 17 mph    
Max Gust Speed 23 mph    
T = Trace of Precipitation, MM = Missing Value Source: NWS Daily Summary

Daily Weather History Graph

Daily Weather History Graph

Search for Another Location

Airport or City:

Trip Planner

Search our weather history database for the weather conditions in past years. The results will help you decide how hot, cold, wet, or windy it might be!

Date:

Astronomy

Aug. 22, 2013 Rise Set
Actual Time 6:12 AM MDT 7:32 PM MDT
Civil Twilight 5:45 AM MDT 8:00 PM MDT
Nautical Twilight 5:13 AM MDT 8:32 PM MDT
Astronomical Twilight 4:38 AM MDT 9:06 PM MDT
Moon 8:22 PM MDT (8/22) 8:00 AM MDT (8/22)
Length of Visible Light 14h 14m
Length of Day
13h 19m
Waning Gibbous, 96% of the Moon is Illuminated
Aug 22
Waning Gibbous
Aug 28
Last Quarter
Sep 5
New
Sep 12
First Quarter
Sep 19
Full

Hourly Weather History & Observations

Time (MDT) Temp. Heat Index Dew Point Humidity Pressure Visibility Wind Dir Wind Speed Gust Speed Precip Events Conditions
12:56 AM 71.1 °F - 50.0 °F 47% 29.91 in - South 15.0 mph - N/A   Unknown
1:56 AM 73.0 °F - 50.0 °F 44% 29.90 in - SSW 13.8 mph - N/A   Unknown
2:56 AM 71.1 °F - 50.0 °F 47% 29.89 in - SSW 10.4 mph - N/A   Unknown
3:56 AM 68.0 °F - 51.1 °F 55% 29.89 in - SSW 6.9 mph - N/A   Unknown
4:56 AM 66.0 °F - 51.1 °F 59% 29.90 in - SW 8.1 mph - N/A   Unknown
5:56 AM 64.9 °F - 51.1 °F 61% 29.91 in - SW 9.2 mph - N/A   Unknown
6:56 AM 64.0 °F - 51.1 °F 63% 29.93 in - SW 8.1 mph - N/A   Unknown
7:56 AM 71.1 °F - 52.0 °F 51% 29.94 in - WSW 6.9 mph - N/A   Unknown
8:56 AM 77.0 °F - 59.0 °F 54% 29.95 in - NNW 9.2 mph 17.3 mph N/A   Unknown
9:56 AM 81.0 °F 81.7 °F 61.0 °F 50% 29.94 in - WNW 10.4 mph - N/A   Unknown
10:56 AM 84.0 °F 84.9 °F 63.0 °F 49% 29.94 in - NW 12.7 mph - N/A   Unknown
11:56 AM 88.0 °F 88.4 °F 62.1 °F 42% 29.92 in - NW 11.5 mph 17.3 mph N/A   Unknown
12:56 PM 90.0 °F 89.7 °F 60.1 °F 37% 29.91 in - Variable 5.8 mph - N/A   Unknown
1:56 PM 90.0 °F 89.1 °F 59.0 °F 35% 29.90 in - NW 6.9 mph - N/A   Unknown
2:56 PM 93.0 °F 91.7 °F 57.0 °F 30% 29.87 in - NNW 6.9 mph - N/A   Unknown
3:56 PM 93.0 °F 91.7 °F 57.0 °F 30% 29.86 in - NNW 6.9 mph - N/A   Unknown
4:56 PM 89.1 °F 88.0 °F 57.9 °F 35% 29.87 in - NW 3.5 mph - N/A   Unknown
5:56 PM 86.0 °F 86.3 °F 62.1 °F 44% 29.86 in - NW 4.6 mph - N/A   Unknown
6:56 PM 82.0 °F 82.7 °F 61.0 °F 49% 29.87 in - NNW 5.8 mph - N/A   Unknown
7:56 PM 75.9 °F - 61.0 °F 60% 29.87 in - North 5.8 mph - N/A   Unknown
8:56 PM 77.0 °F - 59.0 °F 54% 29.88 in - Calm Calm - N/A   Unknown
9:56 PM 73.9 °F - 57.9 °F 57% 29.91 in - Calm Calm - N/A   Unknown
10:56 PM 72.0 °F - 52.0 °F 49% 29.91 in - South 8.1 mph - N/A   Unknown
11:56 PM 72.0 °F - 48.0 °F 43% 29.89 in - South 11.5 mph - N/A   Unknown